Temp
17 17 17 17 18 18 18 19 19 19 18 18 18 18 18 18 19 19 20 21 20 20 20 20 20 20 20 21 21 22 15 15 20 21 23 23 22 27 26 23 24 23 25 26 24
17 17 17 18 18 18 18 19 19 19 19 19 18 18 18 19 20 21 21 21 20 20 20 21 20 21 21 21 22 18 14 17 18 22 22 23 24 26 25 24 22 24 26 25 24
17 17 18 18 18 18 19 19 19 19 19 19 18 18 19 19 20 22 22 22 21 20 20 20 21 21 21 21 22 19 17 18 21 23 23 23 25 26 25 24 23 25 26 25 25
17 17 18 18 18 19 19 19 19 20 19 19 19 19 19 19 21 22 22 22 21 21 20 21 21 21 18 20 22 21 21 22 24 25 23 23 26 26 26 26 26 26 26 26 24
17 18 18 18 18 19 19 19 20 20 19 19 19 18 18 19 21 22 22 22 22 21 21 21 21 21 20 20 21 20 21 23 25 24 23 25 25 26 27 27 27 25 24 25 24
17 18 18 18 18 19 19 19 20 20 20 19 19 18 18 16 22 22 22 22 22 22 22 21 22 21 21 21 20 22 22 22 24 25 24 22 24 25 27 26 27 25 24 24 24
17 18 18 19 19 19 19 20 20 20 19 19 18 18 18 21 22 22 22 22 22 22 22 22 22 22 22 20 22 22 21 20 22 24 24 24 23 23 27 27 24 25 25 23 24
17 18 19 19 19 19 19 20 20 20 19 19 19 18 18 21 22 22 22 21 22 22 22 22 22 22 22 22 21 20 19 19 21 23 24 24 20 21 26 26 27 25 24 24 24
17 18 19 19 20 19 20 20 20 20 19 18 18 17 18 20 22 22 22 22 22 22 23 22 22 22 21 17 16 16 19 20 20 22 23 23 21 22 24 26 25 27 26 26 26
17 18 19 19 20 19 20 20 19 19 18 18 17 17 20 22 22 22 22 23 22 22 22 22 22 17 14 14 16 17 19 20 19 21 21 20 19 19 22 24 25 26 26 25 26
17 18 19 19 20 19 19 20 19 18 18 19 19 20 21 22 22 22 23 22 21 21 19 20 17 16 17 16 18 19 19 18 18 20 22 20 19 20 20 23 22 24 26 26 26
17 18 19 19 20 19 19 18 17 17 17 19 20 20 21 20 20 23 22 21 20 17 19 18 16 18 19 19 18 18 18 17 18 19 20 21 20 20 21 23 23 24 23 25 25
16 17 19 19 20 19 19 18 18 18 17 19 20 19 20 20 19 22 21 22 20 18 18 17 19 20 20 19 19 17 17 18 19 21 20 21 19 20 21 22 24 24 24 23 23
17 17 18 19 19 18 18 18 19 18 13 16 19 21 20 21 19 23 23 23 20 18 17 18 19 20 19 19 20 18 19 20 21 19 18 19 16 17 20 19 20 20 18 19 20
17 17 18 18 18 17 17 18 19 19 14 21 22 23 21 22 23 22 23 22 19 20 18 18 20 20 19 19 21 20 21 21 21 19 17 18 16 16 18 19 16 16 16 17 18
17 17 18 18 17 17 17 18 19 14 14 21 22 22 22 23 23 23 22 23 23 19 19 19 21 20 19 21 20 21 21 17 14 14 15 17 18 16 16 16 15 16 16 17 18
17 17 17 17 16 17 17 18 13 13 18 19 19 20 21 20 19 20 21 20 18 18 17 18 19 20 21 19 18 18 15 14 15 14 15 17 16 15 15 15 15 14 15 16 18
17 17 17 16 16 17 17 13 14 17 18 18 19 18 19 18 19 18 18 17 16 17 15 16 17 19 20 19 19 18 16 13 15 14 14 16 16 15 15 15 16 15 14 15 16
17 17 16 16 16 17 17 11 13 16 17 16 17 17 17 17 18 18 17 16 16 15 16 15 17 18 18 17 18 18 15 16 14 13 12 13 15 14 14 14 13 13 13 14 15
16 16 16 16 16 16 12 11 14 16 16 16 15 15 15 16 16 16 16 16 16 14 15 15 15 16 17 18 16 16 16 14 11 14 13 13 15 14 11 11 11 11 11 11 14
15 15 15 16 16 16 10 11 16 16 16 15 14 14 13 12 14 15 14 14 14 14 13 12 13 15 16 14 13 13 13 12 11 10 10 11 12 12 10 9 9 9 11 12 13
12 10 15 16 13 9 10 12 15 16 16 14 13 13 13 13 13 14 12 12 13 13 12 11 10 11 13 12 13 14 11 8 7 11 8 8 9 10 8 9 10 10 10 11 12
10 10 14 15 8 7 9 12 14 15 15 14 13 14 13 13 13 13 12 13 14 12 12 12 8 8 10 11 12 10 11 11 8 5 7 8 8 9 9 9 10 10 10 10 11
9 5 11 12 9 9 8 11 13 15 13 14 13 12 11 11 10 11 11 12 12 12 12 11 7 9 8 11 10 10 10 11 8 3 7 7 9 9 8 8 9 10 10 10 10
8 5 5 4 7 6 8 10 12 13 13 13 12 12 12 11 10 9 9 9 11 10 9 7 8 8 8 9 10 10 10 10 8 8 7 9 8 9 8 8 9 9 9 9 9
6 5 5 5 6 7 7 8 10 10 13 12 11 11 10 10 10 10 9 9 9 9 8 5 6 7 7 9 9 9 9 8 8 8 8 8 8 9 9 9 8 8 8 8 9
4 4 4 5 5 6 6 7 9 9 11 11 11 10 10 11 11 11 11 10 10 8 6 6 4 3 5 7 8 6 8 9 9 10 10 8 8 6 6 6 7 7 8 8 9
Height
1525 1522 1519 1517 1514 1512 1510 1508 1507 1506 1505 1504 1503 1503 1502 1500 1499 1498 1497 1498 1498 1498 1498 1498 1499 1501 1502 1503 1505 1506 1521 1530 1516 1511 1502 1497 1499 1495 1494 1493 1496 1497 1494 1494 1497
1525 1521 1519 1516 1514 1511 1509 1508 1506 1505 1504 1503 1502 1502 1501 1499 1498 1496 1497 1496 1497 1497 1498 1499 1501 1501 1502 1503 1504 1506 1522 1518 1505 1501 1500 1498 1500 1497 1497 1497 1495 1495 1496 1498 1498
1524 1520 1518 1515 1513 1511 1508 1506 1505 1504 1503 1502 1501 1501 1500 1499 1497 1495 1494 1495 1497 1497 1498 1500 1501 1501 1502 1502 1503 1505 1513 1505 1499 1500 1500 1500 1498 1498 1497 1500 1495 1495 1495 1496 1497
1523 1519 1516 1514 1512 1510 1507 1505 1504 1502 1502 1501 1501 1500 1499 1499 1500 1494 1495 1495 1496 1497 1499 1500 1501 1501 1502 1502 1500 1504 1500 1500 1496 1496 1498 1497 1497 1494 1497 1499 1496 1495 1495 1495 1497
1522 1518 1515 1512 1510 1508 1506 1504 1502 1501 1500 1500 1500 1499 1498 1498 1494 1494 1494 1494 1495 1496 1498 1501 1501 1501 1501 1500 1499 1500 1496 1496 1494 1492 1493 1494 1495 1493 1493 1495 1495 1495 1496 1495 1496
1521 1517 1514 1511 1508 1506 1504 1502 1500 1499 1499 1498 1498 1498 1498 1498 1492 1492 1493 1493 1494 1495 1497 1499 1500 1500 1499 1498 1499 1497 1495 1494 1491 1489 1489 1491 1492 1491 1491 1492 1493 1495 1494 1495 1495
1520 1516 1512 1509 1506 1504 1501 1500 1499 1498 1497 1497 1497 1496 1495 1490 1490 1490 1491 1492 1493 1495 1496 1497 1498 1499 1498 1497 1496 1494 1495 1491 1489 1489 1488 1489 1493 1492 1489 1490 1493 1492 1493 1493 1494
1519 1514 1511 1507 1504 1502 1499 1497 1497 1496 1496 1496 1496 1495 1490 1487 1487 1488 1490 1491 1492 1494 1495 1496 1497 1497 1496 1496 1495 1496 1497 1505 1489 1486 1486 1487 1502 1485 1486 1487 1487 1491 1492 1493 1494
1517 1513 1510 1506 1502 1500 1497 1496 1495 1494 1494 1494 1494 1494 1487 1484 1484 1487 1488 1490 1492 1494 1494 1495 1497 1496 1495 1501 1509 1505 1510 1503 1496 1485 1486 1487 1493 1476 1479 1482 1484 1486 1489 1491 1493
1516 1512 1508 1505 1501 1499 1496 1495 1494 1493 1493 1493 1492 1495 1485 1483 1483 1485 1487 1489 1491 1493 1494 1495 1495 1497 1502 1509 1524 1512 1506 1501 1502 1487 1486 1490 1492 1478 1476 1478 1479 1482 1484 1486 1487
1515 1510 1506 1503 1500 1498 1497 1495 1497 1494 1492 1489 1487 1484 1481 1481 1483 1483 1484 1487 1489 1493 1495 1493 1501 1506 1500 1500 1499 1500 1502 1505 1496 1484 1486 1489 1490 1481 1476 1476 1479 1480 1481 1480 1480
1514 1508 1504 1502 1498 1498 1497 1496 1498 1498 1486 1479 1476 1473 1475 1478 1481 1479 1482 1486 1488 1494 1493 1498 1502 1490 1492 1493 1497 1498 1504 1504 1494 1484 1486 1483 1485 1479 1476 1476 1478 1478 1478 1479 1478
1512 1506 1502 1500 1496 1497 1496 1496 1496 1493 1490 1469 1467 1464 1465 1472 1476 1473 1479 1480 1482 1489 1491 1499 1486 1486 1489 1493 1496 1494 1499 1496 1494 1481 1481 1482 1490 1485 1478 1478 1476 1476 1476 1477 1478
1510 1504 1499 1498 1498 1495 1495 1494 1494 1492 1500 1477 1464 1460 1461 1465 1468 1467 1472 1476 1480 1484 1486 1490 1481 1484 1489 1491 1488 1497 1480 1482 1482 1491 1504 1485 1516 1494 1483 1479 1479 1479 1477 1476 1473
1508 1502 1498 1495 1495 1495 1495 1493 1493 1493 1521 1466 1461 1460 1460 1463 1461 1463 1466 1471 1475 1477 1482 1487 1481 1483 1487 1486 1479 1485 1475 1478 1478 1487 1496 1495 1509 1496 1481 1482 1485 1483 1479 1475 1471
1506 1500 1496 1495 1494 1494 1492 1492 1493 1506 1514 1468 1462 1461 1462 1460 1460 1460 1462 1465 1468 1473 1475 1476 1473 1475 1476 1474 1475 1474 1476 1485 1492 1498 1513 1496 1498 1502 1490 1489 1487 1482 1479 1474 1467
1503 1498 1495 1494 1495 1494 1492 1492 1507 1516 1476 1477 1472 1467 1463 1466 1465 1463 1462 1468 1477 1487 1487 1478 1475 1471 1471 1477 1476 1478 1492 1514 1513 1517 1517 1494 1500 1501 1493 1488 1485 1483 1479 1474 1468
1502 1497 1494 1495 1495 1493 1492 1496 1510 1490 1484 1477 1474 1470 1473 1471 1470 1469 1469 1477 1477 1478 1488 1492 1494 1477 1473 1476 1481 1483 1490 1513 1517 1522 1515 1495 1503 1498 1492 1489 1485 1483 1480 1474 1470
1500 1497 1496 1496 1495 1494 1493 1510 1505 1494 1489 1486 1478 1479 1480 1476 1474 1473 1478 1484 1484 1482 1490 1494 1489 1478 1478 1476 1476 1484 1498 1490 1504 1508 1518 1506 1494 1494 1490 1486 1483 1481 1478 1475 1471
1500 1497 1497 1496 1494 1493 1497 1504 1497 1491 1489 1487 1493 1489 1492 1487 1482 1480 1481 1487 1486 1484 1484 1490 1494 1484 1481 1478 1481 1484 1486 1502 1513 1513 1516 1505 1494 1492 1498 1494 1486 1482 1480 1478 1475
1501 1498 1499 1495 1493 1494 1503 1501 1492 1491 1490 1491 1494 1495 1496 1498 1492 1491 1493 1494 1490 1492 1489 1494 1497 1492 1481 1490 1495 1494 1497 1501 1507 1514 1520 1518 1506 1494 1500 1498 1494 1488 1485 1481 1476
1505 1503 1499 1495 1496 1501 1502 1498 1494 1492 1491 1491 1492 1495 1497 1497 1496 1495 1504 1502 1496 1494 1499 1501 1505 1507 1497 1492 1490 1489 1501 1510 1524 1514 1523 1520 1512 1496 1494 1494 1493 1492 1490 1485 1481
1511 1507 1502 1496 1507 1507 1500 1496 1494 1492 1494 1493 1496 1494 1495 1497 1501 1496 1499 1502 1499 1498 1501 1501 1515 1522 1510 1504 1495 1500 1501 1504 1514 1523 1519 1522 1510 1494 1493 1493 1492 1490 1487 1484 1480
1518 1515 1506 1503 1508 1508 1505 1499 1495 1491 1493 1493 1496 1496 1497 1500 1500 1501 1502 1500 1500 1499 1500 1501 1511 1511 1518 1506 1503 1504 1502 1502 1509 1535 1516 1511 1500 1497 1494 1492 1490 1488 1487 1485 1482
1521 1521 1521 1517 1508 1511 1510 1503 1497 1493 1493 1492 1496 1497 1497 1501 1502 1504 1504 1503 1501 1500 1501 1504 1510 1507 1505 1503 1502 1503 1503 1502 1506 1507 1513 1500 1501 1497 1496 1495 1494 1492 1490 1487 1484
1524 1524 1521 1518 1512 1510 1508 1507 1504 1500 1493 1494 1496 1497 1498 1500 1499 1502 1501 1503 1502 1499 1501 1504 1510 1507 1507 1501 1500 1502 1500 1499 1499 1498 1500 1499 1498 1492 1492 1492 1492 1490 1488 1484 1481
1524 1524 1524 1517 1514 1512 1512 1510 1505 1502 1499 1497 1497 1497 1496 1495 1493 1494 1495 1495 1494 1496 1501 1503 1509 1517 1514 1503 1500 1505 1494 1493 1492 1490 1491 1497 1494 1493 1491 1489 1487 1485 1484 1482 1480
Wind_Speed
19 18 17 16 15 14 11 9 7 6 6 6 6 8 10 11 10 8 8 3 3 3 1 3 8 4 2 1 4 2 4 1 4 3 6 10 11 6 6 19 8 13 11 16 30
19 18 17 16 16 15 13 11 8 6 6 6 7 8 11 13 12 12 4 5 4 2 2 7 4 1 1 1 4 4 4 8 7 3 4 14 6 2 4 5 2 12 15 31 27
21 19 18 17 16 16 14 13 9 7 7 6 7 8 9 12 12 3 4 5 5 3 6 6 2 2 2 2 4 4 5 5 12 18 19 7 9 3 7 4 9 22 30 36 23
21 19 18 17 16 15 14 13 11 8 7 7 7 9 10 8 1 4 2 3 7 8 7 3 3 1 1 3 7 2 9 8 18 25 9 6 8 3 12 4 9 17 26 35 30
23 21 19 18 16 15 14 13 12 9 7 7 7 8 9 6 7 7 2 2 9 11 9 5 3 3 3 3 1 5 7 12 20 23 19 20 12 5 5 5 4 17 29 33 31
25 22 20 18 17 15 13 13 12 9 7 7 8 8 9 5 3 4 7 7 8 12 8 7 4 9 6 2 1 3 7 13 9 9 7 10 6 3 5 4 7 15 28 34 31
25 23 21 20 18 16 14 12 10 8 7 8 9 9 13 18 6 5 6 7 10 9 4 3 6 2 4 6 4 6 5 7 3 2 2 11 3 6 10 11 14 21 23 33 31
26 23 22 21 19 17 14 10 8 6 6 7 8 10 10 8 11 14 8 7 11 11 8 6 6 6 3 6 7 5 4 4 5 1 2 3 7 10 18 15 15 13 26 29 28
27 24 22 21 19 18 12 6 7 6 6 7 8 7 11 6 13 16 10 12 13 11 9 11 9 3 1 4 5 5 3 4 9 4 2 3 7 13 8 17 18 16 15 20 26
29 25 21 19 16 12 8 5 8 4 5 5 7 5 10 1 8 17 13 12 13 9 13 10 3 2 3 4 4 4 3 2 4 5 3 4 8 11 13 14 22 18 18 17 29
31 27 22 18 11 7 9 2 7 3 8 12 18 19 26 17 10 6 16 21 21 10 4 1 2 7 9 7 6 3 3 5 8 8 1 5 5 9 10 5 6 12 17 19 27
33 28 23 18 11 4 8 7 12 11 15 20 26 32 31 20 10 16 10 17 10 7 3 3 7 9 4 3 6 6 5 10 9 11 6 4 5 5 4 3 6 11 13 19 22
34 30 24 18 10 4 1 8 8 13 5 19 14 18 29 23 18 26 10 21 6 7 6 7 12 5 3 5 7 7 6 6 10 2 3 2 6 4 4 3 10 15 15 15 15
33 30 26 18 4 3 2 8 10 9 4 7 5 5 11 10 7 25 22 17 4 11 7 5 7 8 5 7 2 3 7 6 3 3 4 3 4 5 3 7 4 21 27 24 26
31 29 23 17 11 1 9 11 9 1 4 3 2 2 14 11 2 9 28 21 10 7 7 9 4 5 4 7 4 9 5 3 4 3 3 4 2 6 3 7 9 15 23 29 31
30 26 21 13 5 6 12 13 3 5 6 4 4 2 5 5 2 1 8 24 17 5 1 10 4 5 7 3 5 5 1 6 4 4 1 4 2 3 3 1 3 14 22 31 40
29 24 15 6 5 10 11 3 4 4 5 5 4 6 1 5 6 7 4 5 6 4 4 5 6 2 2 4 5 6 5 3 4 4 4 3 3 5 4 4 4 6 22 31 38
27 20 6 3 8 15 8 5 1 2 3 4 5 8 4 6 4 8 4 3 8 4 3 4 5 5 5 4 3 3 4 5 5 3 4 4 4 4 1 2 9 15 24 31 37
26 12 7 5 9 12 5 3 5 3 5 7 8 4 5 5 3 3 4 3 5 6 2 1 2 3 7 4 3 2 3 2 3 2 3 3 1 3 5 13 20 22 28 35 36
26 7 8 10 10 6 4 4 3 3 5 4 4 7 5 6 5 6 4 6 3 8 1 1 2 2 2 3 10 5 1 2 3 2 4 4 4 2 8 9 13 19 24 30 33
18 3 12 12 4 2 3 4 1 5 4 5 4 5 5 6 5 6 10 5 8 5 11 6 2 5 1 4 3 3 2 4 3 4 5 2 5 5 3 2 6 13 25 29 33
16 4 16 8 6 3 1 3 8 3 5 5 4 3 2 3 4 4 4 5 11 4 4 5 2 2 3 7 3 2 4 5 4 2 2 2 5 4 5 5 11 15 20 24 27
19 8 11 9 3 3 6 3 3 4 3 2 2 2 2 1 1 3 5 8 14 5 2 1 2 2 6 5 4 6 3 4 3 3 5 4 5 4 6 7 14 18 23 25 26
9 4 6 10 6 3 5 3 4 6 3 2 3 5 4 4 4 2 4 2 6 2 9 3 3 6 6 5 1 4 5 1 4 3 3 5 10 9 8 9 16 20 21 22 22
7 2 3 4 4 5 4 5 4 1 2 3 3 2 3 2 3 2 1 4 3 2 3 4 3 3 4 5 2 4 6 6 6 7 6 4 7 7 3 4 5 8 14 18 17
6 6 6 8 10 6 4 5 8 9 1 1 4 4 3 5 5 4 3 3 5 2 3 2 2 2 4 7 6 6 8 9 9 7 7 7 6 2 5 6 7 12 12 11 14
7 3 4 5 5 3 2 5 4 9 5 7 2 3 3 4 13 10 10 8 11 6 5 3 5 3 3 2 2 5 5 4 3 2 2 4 4 4 5 9 13 20 20 11 13
Wind_Direction
3 1 359 358 358 356 352 341 330 322 316 311 312 321 327 328 321 298 249 182 191 218 284 179 152 154 237 221 202 124 60 184 244 199 273 332 18 7 168 147 156 199 205 180 154
357 353 351 350 350 350 348 342 320 306 300 301 306 314 323 325 312 285 250 206 209 186 160 155 151 343 234 234 181 117 124 216 215 225 268 318 344 344 111 176 258 177 167 158 168
356 351 346 344 343 342 342 341 325 300 292 291 297 304 316 324 326 14 197 232 243 183 165 174 211 300 273 240 198 163 192 218 261 258 285 285 306 83 108 340 180 163 169 176 174
355 352 346 340 337 335 334 335 328 300 283 287 297 307 315 317 191 83 164 192 175 173 185 202 251 257 238 221 228 193 238 222 277 282 261 239 273 299 134 203 245 194 184 183 188
354 351 347 340 335 330 326 325 324 304 277 275 283 299 314 297 259 216 200 259 178 180 194 214 263 244 249 249 241 204 261 283 296 288 252 261 246 193 260 112 23 199 192 193 195
354 351 346 340 336 330 321 319 319 302 278 266 274 286 295 281 241 236 212 219 189 196 211 226 277 309 282 303 179 304 263 283 305 305 223 177 242 159 224 212 154 202 200 200 199
353 350 346 340 336 333 323 315 314 302 285 270 274 285 281 262 246 198 199 217 214 187 220 296 306 323 329 314 320 289 312 339 272 227 215 183 198 203 242 248 161 182 211 206 207
351 348 346 342 336 334 323 312 312 301 286 279 280 285 265 254 231 197 181 209 198 213 247 278 264 289 246 298 341 1 48 3 279 10 296 126 272 255 255 243 255 192 196 210 211
350 346 346 341 336 337 328 326 323 296 272 278 276 273 267 237 216 188 191 189 197 218 244 279 262 260 40 79 359 1 247 281 319 199 219 194 280 273 248 215 227 243 222 215 217
349 344 344 342 338 352 359 350 347 303 267 277 254 278 246 216 239 212 209 210 233 257 272 251 238 76 45 77 218 249 279 305 256 289 140 285 266 281 293 218 227 245 250 233 217
349 342 342 343 334 9 19 22 1 337 294 257 267 256 273 272 277 244 222 217 234 250 198 24 83 234 233 198 212 270 263 271 279 271 158 229 257 297 307 221 286 261 267 255 222
349 341 338 343 321 317 54 62 15 294 293 279 264 258 259 256 286 253 246 195 190 214 183 22 243 232 250 226 223 240 241 271 277 266 177 303 307 306 7 337 319 306 288 269 250
347 341 335 342 317 255 255 16 346 343 277 301 267 252 247 238 235 249 205 196 170 186 179 181 241 56 212 287 268 245 196 234 224 343 331 17 340 351 328 4 331 331 334 331 304
345 340 332 339 318 296 161 314 318 334 23 278 252 249 176 177 224 218 215 206 201 195 182 214 274 250 265 260 223 275 225 246 247 106 243 51 274 295 313 312 347 9 22 17 10
344 338 332 333 312 10 311 300 317 24 333 255 245 175 155 172 146 206 218 203 183 189 123 238 238 254 204 229 208 241 311 254 230 174 91 341 70 266 265 13 14 16 10 18 18
342 338 334 331 353 334 318 309 307 46 253 316 338 302 159 208 253 98 182 208 223 188 169 230 216 179 220 244 209 253 307 37 48 94 18 232 134 303 36 311 8 9 7 20 20
342 339 340 356 16 338 319 307 48 163 323 342 342 344 357 356 16 4 156 167 182 145 237 296 250 286 85 57 0 57 58 339 330 356 219 280 18 249 68 35 51 354 2 20 20
344 341 3 65 4 357 2 51 216 276 310 348 339 316 79 18 34 353 39 55 27 13 142 163 299 18 336 138 174 49 137 156 224 197 237 332 245 191 220 21 17 24 17 16 15
347 358 66 15 342 340 19 81 216 315 333 338 324 30 4 359 36 53 65 67 32 30 111 117 215 11 30 26 69 292 57 201 133 31 87 238 338 237 2 15 19 18 20 14 13
344 38 40 356 331 322 74 219 253 354 341 6 7 23 352 360 20 18 75 351 12 17 26 197 327 89 300 23 13 92 241 21 9 243 233 261 230 199 15 5 6 7 1 3 5
350 31 360 348 339 117 143 240 308 19 45 37 32 10 26 9 2 352 25 22 0 1 43 30 59 295 339 77 164 359 12 62 118 136 201 215 251 95 86 57 22 0 10 7 0
359 356 355 356 49 7 56 304 313 359 41 39 104 83 79 4 351 3 78 20 0 18 53 346 108 288 282 339 305 114 106 97 115 251 257 194 260 142 105 43 23 8 8 2 0
343 311 5 2 83 336 315 301 11 14 9 54 67 58 62 52 322 59 84 39 35 47 70 15 5 21 334 352 3 75 87 123 116 89 219 181 262 181 79 29 12 1 358 357 353
348 349 336 45 41 17 344 289 332 354 68 104 112 78 60 39 19 345 16 94 27 72 54 99 153 167 199 228 185 315 325 276 144 126 241 237 294 321 342 344 352 353 350 346 343
4 353 345 312 326 339 303 318 314 265 105 56 94 67 160 170 353 31 358 324 341 24 65 96 205 199 253 255 247 235 244 247 212 218 204 252 266 265 242 233 266 318 334 327 326
5 356 337 293 301 321 351 8 1 339 151 140 129 156 133 160 189 215 189 188 232 323 99 3 216 136 238 243 236 247 242 240 247 253 249 246 265 164 308 308 308 322 314 306 314
5 334 313 298 328 351 14 329 356 352 29 59 205 195 226 235 202 223 232 223 229 199 156 182 146 97 268 356 10 312 244 217 230 228 236 236 230 2 315 312 318 324 319 281 307